Time,TemperatureF,DewpointF,PressureIn,WindDirection,WindDirectionDegrees,WindSpeedMPH,WindSpeedGustMPH,Humidity,HourlyPrecipIn,Conditions,Clouds,dailyrainin,SoftwareType,DateUTC
2013-07-22 00:06:00,54.6,51.0,30.03,SSE,165,0.0,0.0,87,0.00,,,0.00,weatherlink.com 1.10,2013-07-22 04:06:00,
2013-07-22 00:21:00,53.9,50.0,30.03,SSE,165,0.0,0.0,87,0.00,,,0.00,weatherlink.com 1.10,2013-07-22 04:21:00,
2013-07-22 00:36:00,53.5,50.0,30.02,SSE,165,0.0,0.0,87,0.00,,,0.00,weatherlink.com 1.10,2013-07-22 04:36:00,
2013-07-22 00:51:00,53.2,50.0,30.02,SSE,165,0.0,0.0,87,0.00,,,0.00,weatherlink.com 1.10,2013-07-22 04:51:00,
2013-07-22 01:06:00,53.1,50.0,30.02,SSE,165,0.0,0.0,88,0.00,,,0.00,weatherlink.com 1.10,2013-07-22 05:06:00,
2013-07-22 01:21:00,52.7,49.0,30.02,SSE,165,0.0,0.0,88,0.00,,,0.00,weatherlink.com 1.10,2013-07-22 05:21:00,
2013-07-22 01:36:00,52.5,49.0,30.02,SSE,165,0.0,0.0,88,0.00,,,0.00,weatherlink.com 1.10,2013-07-22 05:36:00,
2013-07-22 01:51:00,52.1,49.0,30.01,SSE,165,0.0,0.0,88,0.00,,,0.00,weatherlink.com 1.10,2013-07-22 05:51:00,
2013-07-22 02:06:00,51.9,49.0,30.01,SSE,165,0.0,1.0,88,0.00,,,0.00,weatherlink.com 1.10,2013-07-22 06:06:00,
2013-07-22 02:21:00,51.9,49.0,30.01,SSE,165,0.0,0.0,88,0.00,,,0.00,weatherlink.com 1.10,2013-07-22 06:21:00,
2013-07-22 02:36:00,52.6,49.0,30.01,SSE,165,0.0,1.0,88,0.00,,,0.00,weatherlink.com 1.10,2013-07-22 06:36:00,
2013-07-22 02:51:00,53.1,50.0,30.00,SSE,165,0.0,1.0,88,0.00,,,0.00,weatherlink.com 1.10,2013-07-22 06:51:00,
2013-07-22 03:06:00,53.7,50.0,30.00,SSE,165,0.0,2.0,88,0.00,,,0.00,weatherlink.com 1.10,2013-07-22 07:06:00,
2013-07-22 03:21:00,53.8,50.0,30.00,SSE,165,0.0,0.0,88,0.00,,,0.00,weatherlink.com 1.10,2013-07-22 07:21:00,
2013-07-22 03:36:00,54.4,51.0,30.00,WNW,290,0.0,4.0,88,0.00,,,0.00,weatherlink.com 1.10,2013-07-22 07:36:00,
2013-07-22 03:51:00,55.1,52.0,30.00,WNW,290,0.0,1.0,88,0.00,,,0.00,weatherlink.com 1.10,2013-07-22 07:51:00,
2013-07-22 04:06:00,55.7,52.0,30.00,WNW,290,0.0,1.0,88,0.00,,,0.00,weatherlink.com 1.10,2013-07-22 08:06:00,
2013-07-22 04:21:00,56.1,53.0,29.99,WNW,290,0.0,0.0,88,0.00,,,0.00,weatherlink.com 1.10,2013-07-22 08:21:00,
2013-07-22 04:36:00,56.7,53.0,29.99,WNW,290,0.0,2.0,88,0.00,,,0.00,weatherlink.com 1.10,2013-07-22 08:36:00,
2013-07-22 04:51:00,57.7,54.0,29.98,NE,56,1.0,2.0,88,0.00,,,0.00,weatherlink.com 1.10,2013-07-22 08:51:00,
2013-07-22 05:06:00,58.4,55.0,29.98,ENE,57,3.0,4.0,88,0.00,,,0.00,weatherlink.com 1.10,2013-07-22 09:06:00,
2013-07-22 05:21:00,58.9,55.0,29.98,ENE,57,0.0,3.0,87,0.00,,,0.00,weatherlink.com 1.10,2013-07-22 09:21:00,
2013-07-22 05:36:00,59.1,55.0,29.97,ESE,108,0.0,4.0,87,0.00,,,0.00,weatherlink.com 1.10,2013-07-22 09:36:00,
2013-07-22 05:51:00,59.2,55.0,29.96,East,98,2.0,3.0,87,0.00,,,0.00,weatherlink.com 1.10,2013-07-22 09:51:00,
2013-07-22 06:06:00,59.1,55.0,29.97,ENE,72,0.0,0.0,87,0.00,,,0.00,weatherlink.com 1.10,2013-07-22 10:06:00,
2013-07-22 06:21:00,59.5,56.0,29.96,East,87,0.0,5.0,87,0.00,,,0.00,weatherlink.com 1.10,2013-07-22 10:21:00,
2013-07-22 06:36:00,60.0,56.0,29.96,East,87,0.0,5.0,87,0.00,,,0.00,weatherlink.com 1.10,2013-07-22 10:36:00,
2013-07-22 06:51:00,60.4,57.0,29.97,East,88,0.0,3.0,87,0.00,,,0.00,weatherlink.com 1.10,2013-07-22 10:51:00,
2013-07-22 07:06:00,60.6,57.0,29.96,East,88,0.0,2.0,87,0.00,,,0.00,weatherlink.com 1.10,2013-07-22 11:06:00,
2013-07-22 07:21:00,60.9,57.0,29.96,East,88,0.0,3.0,87,0.00,,,0.00,weatherlink.com 1.10,2013-07-22 11:21:00,
2013-07-22 07:36:00,61.3,57.0,29.96,East,88,0.0,1.0,87,0.00,,,0.00,weatherlink.com 1.10,2013-07-22 11:36:00,
2013-07-22 07:51:00,61.8,58.0,29.96,East,88,0.0,3.0,87,0.00,,,0.00,weatherlink.com 1.10,2013-07-22 11:51:00,
2013-07-22 08:06:00,62.5,58.0,29.96,East,97,0.0,4.0,86,0.00,,,0.00,weatherlink.com 1.10,2013-07-22 12:06:00,
2013-07-22 08:21:00,63.1,59.0,29.95,SSE,160,1.0,3.0,86,0.00,,,0.00,weatherlink.com 1.10,2013-07-22 12:21:00,
2013-07-22 08:36:00,63.8,59.0,29.94,SE,138,2.0,5.0,85,0.00,,,0.00,weatherlink.com 1.10,2013-07-22 12:36:00,
2013-07-22 08:51:00,64.4,60.0,29.94,SE,130,0.0,6.0,85,0.00,,,0.00,weatherlink.com 1.10,2013-07-22 12:51:00,
2013-07-22 09:06:00,65.3,60.0,29.93,South,182,3.0,10.0,83,0.00,,,0.00,weatherlink.com 1.10,2013-07-22 13:06:00,
2013-07-22 09:14:00,66.0,60.0,29.93,SE,126,5.0,8.0,81,0.00,,,0.00,weatherlink.com 1.10,2013-07-22 13:14:00,
2013-07-22 09:29:00,66.6,60.0,29.94,SSE,150,4.0,9.0,80,0.00,,,0.00,weatherlink.com 1.10,2013-07-22 13:29:00,
2013-07-22 09:44:00,66.2,60.0,29.93,SSE,160,4.0,10.0,81,0.00,,,0.00,weatherlink.com 1.10,2013-07-22 13:44:00,
2013-07-22 09:59:00,66.6,61.0,29.93,ESE,117,5.0,6.0,81,0.00,,,0.00,weatherlink.com 1.10,2013-07-22 13:59:00,
2013-07-22 10:14:00,67.8,61.0,29.93,SE,140,5.0,8.0,79,0.00,,,0.00,weatherlink.com 1.10,2013-07-22 14:14:00,
2013-07-22 10:29:00,68.7,62.0,29.92,ESE,104,4.0,9.0,80,0.00,,,0.00,weatherlink.com 1.10,2013-07-22 14:29:00,
2013-07-22 10:44:00,68.8,62.0,29.92,SSW,193,1.0,8.0,78,0.00,,,0.00,weatherlink.com 1.10,2013-07-22 14:44:00,
2013-07-22 10:59:00,69.2,62.0,29.91,SSE,148,1.0,10.0,78,0.00,,,0.00,weatherlink.com 1.10,2013-07-22 14:59:00,
2013-07-22 11:14:00,69.3,63.0,29.91,ESE,117,2.0,10.0,80,0.00,,,0.00,weatherlink.com 1.10,2013-07-22 15:14:00,
2013-07-22 11:29:00,69.9,62.0,29.90,SE,145,6.0,11.0,76,0.00,,,0.00,weatherlink.com 1.10,2013-07-22 15:29:00,
2013-07-22 11:44:00,69.9,62.0,29.91,ENE,59,5.0,11.0,76,0.00,,,0.00,weatherlink.com 1.10,2013-07-22 15:44:00,
2013-07-22 11:59:00,70.0,62.0,29.90,ESE,112,3.0,14.0,76,0.00,,,0.00,weatherlink.com 1.10,2013-07-22 15:59:00,
2013-07-22 12:15:00,70.9,62.0,29.89,SE,140,8.0,10.0,74,0.00,,,0.00,weatherlink.com 1.10,2013-07-22 16:15:00,
2013-07-22 12:30:00,71.4,62.0,29.89,South,178,7.0,10.0,73,0.00,,,0.00,weatherlink.com 1.10,2013-07-22 16:30:00,
2013-07-22 12:45:00,71.5,63.0,29.89,SSE,154,3.0,11.0,74,0.00,,,0.00,weatherlink.com 1.10,2013-07-22 16:45:00,
2013-07-22 13:00:00,71.3,63.0,29.89,ESE,111,3.0,12.0,74,0.00,,,0.00,weatherlink.com 1.10,2013-07-22 17:00:00,
2013-07-22 13:15:00,72.1,63.0,29.88,SE,140,8.0,11.0,73,0.00,,,0.00,weatherlink.com 1.10,2013-07-22 17:15:00,
2013-07-22 13:30:00,72.0,63.0,29.88,South,170,6.0,13.0,73,0.00,,,0.00,weatherlink.com 1.10,2013-07-22 17:30:00,
2013-07-22 13:45:00,72.4,64.0,29.87,East,86,13.0,13.0,74,0.00,,,0.00,weatherlink.com 1.10,2013-07-22 17:45:00,
2013-07-22 14:15:00,72.1,64.0,29.86,South,170,10.0,12.0,75,0.00,,,0.00,weatherlink.com 1.10,2013-07-22 18:15:00,
2013-07-22 14:30:00,72.3,64.0,29.85,SE,138,6.0,12.0,76,0.00,,,0.00,weatherlink.com 1.10,2013-07-22 18:30:00,
2013-07-22 15:00:00,72.3,64.0,29.84,SSE,148,5.0,14.0,76,0.00,,,0.00,weatherlink.com 1.10,2013-07-22 19:00:00,
2013-07-22 15:15:00,72.7,64.0,29.84,ESE,123,7.0,12.0,74,0.00,,,0.00,weatherlink.com 1.10,2013-07-22 19:15:00,
2013-07-22 15:30:00,72.6,63.0,29.83,ENE,61,2.0,9.0,73,0.00,,,0.00,weatherlink.com 1.10,2013-07-22 19:30:00,
2013-07-22 15:45:00,73.0,64.0,29.83,SSE,157,2.0,11.0,73,0.00,,,0.00,weatherlink.com 1.10,2013-07-22 19:45:00,
2013-07-22 16:00:00,73.1,64.0,29.82,SE,140,6.0,11.0,73,0.00,,,0.00,weatherlink.com 1.10,2013-07-22 20:00:00,
2013-07-22 16:15:00,73.6,64.0,29.81,SE,142,3.0,10.0,72,0.00,,,0.00,weatherlink.com 1.10,2013-07-22 20:15:00,
2013-07-22 16:30:00,73.6,66.0,29.80,East,79,2.0,12.0,76,0.00,,,0.00,weatherlink.com 1.10,2013-07-22 20:30:00,
2013-07-22 16:45:00,72.9,66.0,29.80,SSW,200,6.0,12.0,78,0.00,,,0.00,weatherlink.com 1.10,2013-07-22 20:45:00,
2013-07-22 17:00:00,72.4,66.0,29.80,East,89,6.0,10.0,80,0.00,,,0.00,weatherlink.com 1.10,2013-07-22 21:00:00,
2013-07-22 17:15:00,72.6,66.0,29.78,SE,138,0.0,10.0,80,0.00,,,0.00,weatherlink.com 1.10,2013-07-22 21:15:00,
2013-07-22 17:30:00,73.7,67.0,29.77,SE,136,1.0,12.0,79,0.00,,,0.00,weatherlink.com 1.10,2013-07-22 21:30:00,
2013-07-22 17:45:00,73.6,66.0,29.76,ESE,123,3.0,12.0,77,0.00,,,0.00,weatherlink.com 1.10,2013-07-22 21:45:00,
2013-07-22 18:00:00,73.4,66.0,29.75,SE,143,2.0,9.0,78,0.00,,,0.00,weatherlink.com 1.10,2013-07-22 22:00:00,
2013-07-22 18:15:00,73.1,66.0,29.74,SE,138,6.0,11.0,79,0.00,,,0.00,weatherlink.com 1.10,2013-07-22 22:15:00,
2013-07-22 18:30:00,73.0,67.0,29.74,ESE,123,0.0,11.0,80,0.00,,,0.00,weatherlink.com 1.10,2013-07-22 22:30:00,
2013-07-22 18:45:00,73.2,67.0,29.74,SE,144,2.0,8.0,80,0.00,,,0.00,weatherlink.com 1.10,2013-07-22 22:45:00,
2013-07-22 19:01:00,73.9,67.0,29.74,ESE,113,3.0,8.0,79,0.00,,,0.00,weatherlink.com 1.10,2013-07-22 23:01:00,
2013-07-22 19:16:00,73.7,66.0,29.73,SSE,155,3.0,5.0,78,0.00,,,0.00,weatherlink.com 1.10,2013-07-22 23:16:00,
2013-07-22 19:31:00,72.4,66.0,29.73,South,173,4.0,8.0,80,0.00,,,0.00,weatherlink.com 1.10,2013-07-22 23:31:00,
2013-07-22 19:46:00,71.8,65.0,29.72,South,186,8.0,10.0,80,0.00,,,0.00,weatherlink.com 1.10,2013-07-22 23:46:00,
2013-07-22 20:16:00,71.6,66.0,29.73,SSW,196,2.0,9.0,81,0.00,,,0.00,weatherlink.com 1.10,2013-07-23 00:16:00,
2013-07-22 20:31:00,70.6,65.0,29.72,SSW,198,5.0,8.0,83,0.00,,,0.00,weatherlink.com 1.10,2013-07-23 00:31:00,
2013-07-22 20:46:00,70.3,65.0,29.71,South,172,2.0,10.0,83,0.00,,,0.00,weatherlink.com 1.10,2013-07-23 00:46:00,
2013-07-22 21:01:00,69.7,65.0,29.70,SSW,192,4.0,7.0,84,0.00,,,0.00,weatherlink.com 1.10,2013-07-23 01:01:00,
2013-07-22 21:16:00,69.0,64.0,29.70,ESE,123,0.0,5.0,85,0.00,,,0.00,weatherlink.com 1.10,2013-07-23 01:16:00,
2013-07-22 21:31:00,68.5,64.0,29.71,ESE,108,0.0,5.0,86,0.00,,,0.00,weatherlink.com 1.10,2013-07-23 01:31:00,
2013-07-22 21:46:00,68.6,64.0,29.72,ESE,108,0.0,1.0,86,0.00,,,0.00,weatherlink.com 1.10,2013-07-23 01:46:00,
2013-07-22 22:01:00,68.8,65.0,29.73,ESE,108,0.0,1.0,86,0.00,,,0.00,weatherlink.com 1.10,2013-07-23 02:01:00,
2013-07-22 22:16:00,69.1,65.0,29.71,SE,142,0.0,4.0,86,0.00,,,0.00,weatherlink.com 1.10,2013-07-23 02:16:00,
2013-07-22 22:31:00,69.2,65.0,29.70,SE,126,0.0,2.0,86,0.00,,,0.00,weatherlink.com 1.10,2013-07-23 02:31:00,
2013-07-22 22:46:00,68.9,65.0,29.70,SE,137,0.0,3.0,86,0.00,,,0.00,weatherlink.com 1.10,2013-07-23 02:46:00,
2013-07-22 23:01:00,68.8,65.0,29.68,SE,128,0.0,4.0,86,0.00,,,0.00,weatherlink.com 1.10,2013-07-23 03:01:00,
2013-07-22 23:16:00,68.6,64.0,29.68,South,174,0.0,5.0,86,0.00,,,0.00,weatherlink.com 1.10,2013-07-23 03:16:00,
2013-07-22 23:31:00,68.4,64.0,29.67,South,180,5.0,6.0,86,0.00,,,0.00,weatherlink.com 1.10,2013-07-23 03:31:00,
2013-07-22 23:46:00,68.0,64.0,29.66,SE,124,1.0,4.0,87,0.00,,,0.00,weatherlink.com 1.10,2013-07-23 03:46:00,